Weather History for Barcelona / Aeropuerto, Spain

Change the Weather History Date:

Friday, November 8, 2013

  Actual Average Record
Temperature  
Mean Temperature 64 °F -  
Max Temperature 73 °F 59 °F - ()
Min Temperature 55 °F 46 °F - ()
Degree Days  
Heating Degree Days 1    
Growing Degree Days 14 (Base 50)    
Moisture  
Dew Point 54 °F    
Average Humidity 69    
Maximum Humidity 90    
Minimum Humidity 46    
Precipitation  
Precipitation 0.00 in 0.09 in - ()
Sea Level Pressure  
Sea Level Pressure 29.96 in    
Wind  
Wind Speed 7 mph ()    
Max Wind Speed 22 mph    
Max Gust Speed 21 mph    
Visibility 6.8 miles    
Events      
T = Trace of Precipitation, MM = Missing Value Source: Averaged Metar Reports

Daily Weather History Graph

Daily Weather History Graph

Search for Another Location

Airport:

Trip Planner

Search our weather history database for the weather conditions in past years. The results will help you decide how hot, cold, wet, or windy it might be!

Date:

Astronomy

Nov. 08, 2013 Rise Set
Actual Time 7:31 AM CET 5:38 PM CET
Civil Twilight 7:02 AM CET 6:08 PM CET
Nautical Twilight 6:29 AM CET 6:41 PM CET
Astronomical Twilight 5:56 AM CET 7:13 PM CET
Moon 12:15 PM CET (11/8) 10:42 PM CET (11/8)
Length of Visible Light 11h 05m
Length of Day
10h 07m
Waxing Crescent, 30% of the Moon is Illuminated
Nov 8
Waxing Crescent
Nov 10
First Quarter
Nov 17
Full
Nov 25
Last Quarter
Dec 3
New

Hourly Weather History & Observations

Time (CET) Temp. Dew Point Humidity Pressure Visibility Wind Dir Wind Speed Gust Speed Precip Events Conditions
12:00 AM 62.6 °F 57.2 °F 82% 30.01 in 6.2 mi WNW 5.8 mph - N/A   Partly Cloudy
12:30 AM 62.6 °F 57.2 °F 82% 30.01 in 6.2 mi NW 5.8 mph - N/A   Partly Cloudy
1:00 AM 62 °F 59 °F 88% 29.99 in 6 mi North 3.5 mph - -   Mist
1:00 AM 60.8 °F 57.2 °F 88% 29.98 in 5.6 mi NW 3.5 mph - N/A   Partly Cloudy
1:30 AM 60.8 °F 57.2 °F 88% 29.98 in 5.6 mi WNW 4.6 mph - N/A   Partly Cloudy
2:00 AM 60.8 °F 57.2 °F 88% 29.98 in 5.6 mi WNW 5.8 mph - N/A   Partly Cloudy
2:30 AM 60.8 °F 55.4 °F 82% 29.98 in 5.6 mi West 3.5 mph - N/A   Partly Cloudy
3:00 AM 59.0 °F 55.4 °F 88% 29.98 in 5.6 mi NW 4.6 mph - N/A   Partly Cloudy
3:30 AM 59.0 °F 55.4 °F 88% 29.98 in 5.6 mi WNW 5.8 mph - N/A   Partly Cloudy
4:30 AM 59.0 °F 55.4 °F 88% 29.95 in 5.6 mi WNW 5.8 mph - N/A   Partly Cloudy
5:00 AM 59.0 °F 55.4 °F 88% 29.95 in 5.6 mi WNW 4.6 mph - N/A   Partly Cloudy
5:30 AM 59.0 °F 55.4 °F 88% 29.95 in 5.6 mi NW 1.2 mph - N/A   Partly Cloudy
6:00 AM 59.0 °F 53.6 °F 82% 29.95 in 5.6 mi NW 2.3 mph - N/A   Partly Cloudy
6:30 AM 59.0 °F 55.4 °F 88% 29.95 in 6.2 mi WNW 3.5 mph - N/A   Partly Cloudy
7:00 AM 58 °F 56 °F 90% 29.96 in 9 mi Calm Calm - -   Scattered Clouds
7:00 AM 57.2 °F 53.6 °F 88% 29.95 in 6.2 mi NW 4.6 mph - N/A   Partly Cloudy
7:30 AM 55.4 °F 51.8 °F 88% 29.95 in 6.2 mi NW 8.1 mph - N/A   Partly Cloudy
8:00 AM 57.2 °F 53.6 °F 88% 29.95 in 6.2 mi NNW 11.5 mph - N/A   Partly Cloudy
8:30 AM 62.6 °F 51.8 °F 68% 29.95 in - NW 13.8 mph - N/A   Clear
9:00 AM 64.4 °F 51.8 °F 64% 29.95 in - NW 9.2 mph 20.7 mph N/A   Clear
9:30 AM 64.4 °F 50.0 °F 59% 29.95 in - NW 12.7 mph - N/A   Clear
10:00 AM 66.2 °F 50.0 °F 56% 29.95 in - NW 12.7 mph - N/A   Clear
10:30 AM 68.0 °F 48.2 °F 49% 29.95 in - NW 11.5 mph - N/A   Clear
11:00 AM 68.0 °F 53.6 °F 60% 29.95 in - NW 6.9 mph - N/A   Clear
11:30 AM 69.8 °F 53.6 °F 56% 29.95 in - South 3.5 mph - N/A   Clear
12:00 PM 69.8 °F 53.6 °F 56% 29.95 in - SSW 6.9 mph - N/A   Clear
12:30 PM 71.6 °F 51.8 °F 50% 29.92 in - SW 9.2 mph - N/A   Clear
1:00 PM 72 °F 56 °F 48% 29.93 in 19 mi WSW 16.1 mph - -   Clear
1:00 PM 71.6 °F 53.6 °F 53% 29.92 in - SW 15.0 mph - N/A   Clear
1:30 PM 71.6 °F 53.6 °F 53% 29.92 in - SW 18.4 mph - N/A   Clear
2:00 PM 71.6 °F 55.4 °F 57% 29.92 in - SW 18.4 mph - N/A   Clear
2:30 PM 71.6 °F 55.4 °F 57% 29.89 in - SW 17.3 mph - N/A   Clear
3:00 PM 71.6 °F 51.8 °F 50% 29.89 in - SW 20.7 mph - N/A   Clear
3:30 PM 71.6 °F 55.4 °F 57% 29.89 in - WSW 21.9 mph - N/A   Clear
4:00 PM 71.6 °F 51.8 °F 50% 29.92 in 6.2 mi WSW 15.0 mph - N/A   Partly Cloudy
4:30 PM 71.6 °F 50.0 °F 46% 29.92 in 6.2 mi West 13.8 mph - N/A   Partly Cloudy
5:00 PM 69.8 °F 51.8 °F 53% 29.92 in 6.2 mi West 9.2 mph - N/A   Partly Cloudy
5:30 PM 69.8 °F 50.0 °F 49% 29.92 in 6.2 mi West 9.2 mph - N/A   Partly Cloudy
6:00 PM 69.8 °F 50.0 °F 49% 29.95 in 6.2 mi WSW 10.4 mph - N/A   Partly Cloudy
6:30 PM 69.8 °F 50.0 °F 49% 29.95 in 6.2 mi SW 9.2 mph - N/A   Partly Cloudy
7:00 PM 68 °F 56 °F 57% 29.98 in 19 mi West 6.9 mph - -   Scattered Clouds
7:00 PM 68.0 °F 51.8 °F 56% 29.98 in 6.2 mi WSW 6.9 mph - N/A   Partly Cloudy
7:30 PM 66.2 °F 59.0 °F 78% 29.98 in 6.2 mi SW 8.1 mph - N/A   Partly Cloudy
8:00 PM 66.2 °F 60.8 °F 83% 29.98 in 6.2 mi WSW 6.9 mph - N/A   Partly Cloudy
8:30 PM 64.4 °F 59.0 °F 83% 29.98 in 6.2 mi WSW 4.6 mph - N/A   Partly Cloudy
9:00 PM 66.2 °F 55.4 °F 68% 29.98 in 6.2 mi West 4.6 mph - N/A   Partly Cloudy
9:30 PM 66.2 °F 51.8 °F 60% 30.01 in 6.2 mi SW 8.1 mph - N/A   Partly Cloudy
10:00 PM 64.4 °F 53.6 °F 68% 30.01 in 6.2 mi West 5.8 mph - N/A   Partly Cloudy
10:30 PM 62.6 °F 51.8 °F 68% 30.01 in 6.2 mi NNE 3.5 mph - N/A   Partly Cloudy
11:00 PM 62.6 °F 51.8 °F 68% 30.01 in 6.2 mi Calm Calm - N/A   Partly Cloudy
11:30 PM 62.6 °F 50.0 °F 63% 30.04 in 6.2 mi Variable 2.3 mph - N/A   Partly Cloudy